Tracking 18980 objects as of 21-Feb-2018
HD Live streaming from Space Station
objects crossing your sky now

FENGYUN 1C DEB

Track FENGYUN 1C DEB now!
10-day predictions


NORAD ID: 33647
Int'l Code: 1999-025DEG
Perigee: 782.5 km
Apogee: 1,190.6 km
Inclination: 98.2 °
Period: 104.7 minutes
Semi major axis: 7357 km
RCS: 0.0163 m2 (small)
Launch date: May 10, 1999
Source: People's Republic of China (PRC)
Launch site: Taiyaun Space Center, China (TSC)

Note: This is SATELLITE DEBRIS
aabbcc
Your satellite tracking list
Your tracking list is empty




NASA's NSSDC Master Catalog

Two Line Element Set (TLE):
1 33647U 99025DEG 18042.77068255  .00000659  00000-0  54407-3 0  9996
2 33647  98.1970 232.9084 0277352 355.2166   4.6347 13.75637743507711
Source of the keplerian elements: AFSPC